period_start,C,m1,H,J0,J1,J2,J3,J4,J5,JA,JB,JC,JD,JJ,JK,JN,#
2015-07-13 00:02:02,-0.03,1.04,0.00,34.45,38.07,40.34,4.53,25.38,1008.31,1989.87,2963.17,2941.98,3185.93,349.98,332.09,33.25,0000 0000 0000 0000 000000
2015-07-13 00:07:04,0.03,1.04,0.00,34.48,38.09,40.35,4.53,25.41,1008.31,1989.70,2963.00,2941.63,3185.37,349.70,331.67,33.27,0000 0000 0000 0000 000000
2015-07-13 00:12:05,-0.02,1.04,0.00,34.50,38.10,40.36,4.55,25.26,1008.31,1989.42,2962.84,2941.10,3185.02,349.87,331.87,33.30,0000 0000 0000 0000 000000
2015-07-13 00:17:06,-0.01,1.04,0.00,34.53,38.13,40.38,4.55,25.27,1008.31,1989.21,2962.33,2941.00,3184.99,349.71,331.65,33.33,0000 0000 0000 0000 000000
2015-07-13 00:22:08,0.01,1.04,0.00,34.56,38.14,40.39,4.54,25.28,1008.32,1989.03,2962.01,2940.93,3184.56,349.95,331.79,33.36,0000 0000 0000 0000 000000
2015-07-13 00:27:09,0.06,1.04,0.00,34.59,38.16,40.41,4.52,25.32,1008.32,1989.01,2961.68,2940.28,3184.02,350.19,332.04,33.39,0000 0000 0000 0000 000000
2015-07-13 00:32:10,0.01,1.04,0.00,34.61,38.18,40.43,4.46,25.25,1008.33,1989.00,2961.22,2940.01,3183.98,349.25,331.33,33.42,0000 0000 0000 0000 000000
2015-07-13 00:37:11,0.01,1.04,0.00,34.64,38.20,40.44,4.56,25.31,1008.34,1988.99,2961.01,2940.00,3183.80,350.25,332.00,33.45,0000 0000 0000 0000 000000
2015-07-13 00:42:12,0.03,1.04,0.00,34.66,38.23,40.46,4.53,25.38,1008.32,1988.97,2960.91,2939.89,3183.14,349.77,331.59,33.48,0000 0000 0000 0000 000000
2015-07-13 00:47:14,0.06,1.04,0.00,34.70,38.24,40.49,4.53,25.35,1008.32,1988.92,2960.21,2939.18,3182.82,349.87,331.62,33.51,0000 0000 0000 0000 000000
2015-07-13 00:52:15,-0.05,1.04,0.00,34.72,38.26,40.51,4.49,25.30,1008.32,1988.63,2960.00,2938.94,3182.17,349.69,331.56,33.54,0000 0000 0000 0000 000000
2015-07-13 00:57:17,-0.00,1.04,0.00,34.75,38.29,40.54,4.59,25.18,1008.32,1988.19,2959.92,2938.26,3181.95,350.56,332.21,33.57,0000 0000 0000 0000 000000
2015-07-13 01:02:18,0.04,1.04,0.00,34.78,38.31,40.56,4.53,25.25,1008.32,1988.03,2959.24,2937.89,3181.27,349.87,331.53,33.60,0000 0000 0000 0000 000000
2015-07-13 01:07:19,0.09,1.05,0.00,34.80,38.33,40.58,4.53,25.28,1008.32,1988.00,2958.41,2937.06,3180.41,349.61,331.27,33.63,0000 0000 0000 0000 000000
2015-07-13 01:12:21,0.02,1.05,0.00,34.84,38.35,40.60,4.58,25.29,1008.32,1987.99,2958.27,2936.76,3179.98,350.49,331.78,33.66,0000 0000 0000 0000 000000
2015-07-13 01:17:22,0.05,1.05,0.00,34.87,38.38,40.63,4.57,25.47,1008.32,1987.94,2957.95,2936.03,3179.26,350.30,331.77,33.68,0000 0000 0000 0000 000000
2015-07-13 01:22:23,0.03,1.05,0.00,34.91,38.40,40.64,4.47,25.55,1008.32,1987.71,2957.15,2935.36,3178.62,349.29,330.90,33.71,0000 0000 0000 0000 000000
2015-07-13 01:27:24,-0.00,1.05,0.00,34.94,38.42,40.66,4.53,25.43,1008.32,1987.32,2956.55,2934.90,3177.97,349.82,331.37,33.74,0000 0000 0000 0000 000000
2015-07-13 01:32:25,0.04,1.05,0.00,34.97,38.45,40.69,4.62,25.48,1008.31,1987.11,2955.92,2934.13,3177.17,350.35,331.71,33.77,0000 0000 0000 0000 000000
2015-07-13 01:37:27,0.05,1.05,0.00,35.00,38.47,40.71,4.59,25.44,1008.31,1987.01,2955.54,2933.67,3176.66,350.72,331.91,33.80,0000 0000 0000 0000 000000
2015-07-13 01:42:28,0.06,1.05,0.00,35.03,38.50,40.73,4.62,25.70,1008.30,1986.99,2954.99,2932.90,3175.73,350.02,331.32,33.83,0000 0000 0000 0000 000000
2015-07-13 01:47:30,0.06,1.06,0.00,35.07,38.52,40.75,4.49,25.65,1008.23,1986.93,2954.26,2932.11,3174.96,349.73,331.06,33.86,0000 0000 0000 0000 000000
2015-07-13 01:52:31,0.05,1.06,0.00,35.11,38.55,40.78,4.55,25.69,1008.18,1986.71,2953.37,2931.33,3174.05,349.76,330.97,33.89,0000 0000 0000 0000 000000
2015-07-13 01:57:32,0.06,1.06,0.00,35.15,38.57,40.81,4.62,25.59,1008.09,1986.34,2952.59,2930.55,3173.12,350.63,331.96,33.92,0000 0000 0000 0000 000000
2015-07-13 02:02:33,0.02,1.06,0.00,35.18,38.60,40.83,4.60,25.61,1008.14,1986.14,2951.95,2929.87,3172.22,350.25,331.41,33.95,0000 0000 0000 0000 000000
2015-07-13 02:07:35,0.06,1.06,0.00,35.23,38.63,40.86,4.43,25.64,1008.15,1986.01,2951.42,2929.09,3171.70,349.52,330.69,33.98,0000 0000 0000 0000 000000
2015-07-13 02:12:36,0.04,1.06,0.00,35.27,38.65,40.88,4.57,25.69,1008.27,1986.00,2951.02,2928.71,3171.04,350.48,331.62,34.01,0000 0000 0000 0000 000000
2015-07-13 02:17:38,0.04,1.06,0.00,35.31,38.68,40.90,4.42,25.73,1008.21,1985.93,2950.50,2928.04,3170.51,349.92,330.95,34.04,0000 0000 0000 0000 000000
2015-07-13 02:22:39,0.01,1.07,0.00,35.34,38.71,40.91,4.39,25.60,1008.25,1985.83,2950.00,2927.93,3170.02,350.06,331.09,34.07,0000 0000 0000 0000 000000
2015-07-13 02:27:40,0.02,1.07,0.00,35.38,38.74,40.94,4.46,25.67,1008.19,1985.50,2949.45,2927.27,3169.71,350.06,331.11,34.10,0000 0000 0000 0000 000000
2015-07-13 02:32:41,-0.02,1.06,0.00,35.42,38.77,40.95,4.55,25.59,1008.28,1985.13,2948.99,2926.99,3169.08,350.33,331.12,34.12,0000 0000 0000 0000 000000
2015-07-13 02:37:42,0.05,1.07,0.00,35.46,38.80,40.98,4.55,25.61,1008.27,1985.02,2948.22,2926.48,3168.78,350.27,331.39,34.15,0000 0000 0000 0000 000000
2015-07-13 02:42:43,0.04,1.07,0.00,35.49,38.83,41.02,4.39,25.56,1008.27,1985.00,2947.81,2926.00,3168.05,349.23,330.10,34.18,0000 0000 0000 0000 000000
2015-07-13 02:47:44,0.03,1.07,0.00,35.52,38.86,41.04,4.50,25.70,1008.29,1984.99,2947.21,2925.85,3167.94,349.85,330.66,34.21,0000 0000 0000 0000 000000
2015-07-13 02:52:46,0.05,1.07,0.00,35.55,38.89,41.06,4.48,25.68,1008.30,1984.98,2946.98,2925.25,3167.32,349.78,330.59,34.24,0000 0000 0000 0000 000000
2015-07-13 02:57:47,0.02,1.07,0.00,35.58,38.92,41.09,4.58,25.54,1008.31,1984.89,2946.21,2925.00,3166.98,350.36,331.15,34.27,0000 0000 0000 0000 000000
2015-07-13 03:02:48,-0.06,1.07,0.00,35.62,38.94,41.11,4.49,25.69,1008.31,1984.47,2946.00,2924.79,3166.51,350.06,331.03,34.30,0000 0000 0000 0000 000000
2015-07-13 03:07:49,0.03,1.07,0.00,35.65,38.98,41.15,4.58,25.63,1008.31,1984.14,2945.50,2924.13,3166.03,350.24,330.97,34.33,0000 0000 0000 0000 000000
2015-07-13 03:12:51,0.00,1.07,0.00,35.68,39.00,41.19,4.56,25.51,1008.31,1984.01,2944.99,2923.99,3165.78,350.22,330.87,34.36,0000 0000 0000 0000 000000
2015-07-13 03:17:52,0.05,1.07,0.00,35.71,39.03,41.21,4.61,25.45,1008.31,1984.00,2944.70,2923.71,3165.10,350.63,331.17,34.39,0000 0000 0000 0000 000000
2015-07-13 03:22:53,0.05,1.07,0.00,35.74,39.06,41.24,4.47,25.39,1008.31,1984.00,2944.05,2923.07,3164.98,349.31,330.05,34.42,0000 0000 0000 0000 000000
2015-07-13 03:27:55,0.03,1.07,0.00,35.76,39.09,41.26,4.60,25.44,1008.31,1984.00,2943.81,2922.99,3164.52,350.32,330.85,34.45,0000 0000 0000 0000 000000
2015-07-13 03:32:56,0.04,1.08,0.00,35.79,39.12,41.29,4.60,25.45,1008.31,1983.92,2943.20,2922.58,3164.01,350.34,330.96,34.48,0000 0000 0000 0000 000000
2015-07-13 03:37:57,-0.04,1.08,0.00,35.83,39.14,41.32,4.56,25.48,1008.31,1983.64,2942.96,2922.04,3163.80,350.41,331.07,34.51,0000 0000 0000 0000 000000
2015-07-13 03:42:58,-0.02,1.07,0.00,35.85,39.17,41.35,4.42,25.32,1008.32,1983.09,2942.27,2921.94,3163.05,349.85,330.37,34.53,0000 0000 0000 0000 000000
2015-07-13 03:47:59,0.03,1.07,0.00,35.88,39.20,41.36,4.49,25.33,1008.32,1983.02,2942.01,2921.44,3162.97,349.67,330.17,34.56,0000 0000 0000 0000 000000
2015-07-13 03:53:01,0.04,1.08,0.00,35.90,39.23,41.38,4.50,25.43,1008.32,1983.00,2941.79,2921.03,3162.45,349.44,329.92,34.59,0000 0000 0000 0000 000000
2015-07-13 03:58:02,0.02,1.08,0.00,35.92,39.25,41.41,4.62,25.34,1008.33,1983.00,2941.10,2920.97,3162.01,350.39,330.73,34.62,0000 0000 0000 0000 000000
2015-07-13 04:03:03,0.03,1.08,0.00,35.95,39.28,41.45,4.47,25.42,1008.34,1983.00,2940.95,2920.52,3161.87,349.67,330.21,34.65,0000 0000 0000 0000 000000
2015-07-13 04:08:04,0.05,1.08,0.00,35.98,39.30,41.47,4.50,25.43,1008.36,1982.94,2940.44,2920.06,3161.23,350.28,330.60,34.68,0000 0000 0000 0000 000000
2015-07-13 04:13:05,-0.02,1.08,0.00,36.00,39.33,41.51,4.48,25.40,1008.35,1982.75,2939.95,2919.95,3160.97,349.69,330.13,34.71,0000 0000 0000 0000 000000
2015-07-13 04:18:06,0.02,1.08,0.00,36.04,39.36,41.53,4.53,25.31,1008.38,1982.39,2939.20,2919.35,3160.42,349.82,329.99,34.74,0000 0000 0000 0000 000000
2015-07-13 04:23:08,-0.01,1.08,0.00,36.07,39.38,41.55,4.49,25.35,1008.37,1982.22,2938.98,2919.03,3160.02,349.29,329.83,34.77,0000 0000 0000 0000 000000
2015-07-13 04:28:09,0.01,1.08,0.00,36.08,39.40,41.59,4.53,25.50,1008.35,1982.02,2938.69,2918.94,3159.82,350.05,330.23,34.80,0000 0000 0000 0000 000000
2015-07-13 04:33:10,0.07,1.08,0.00,36.11,39.44,41.61,4.50,25.75,1008.34,1982.00,2938.05,2918.38,3159.23,349.94,330.23,34.83,0000 0000 0000 0000 000000
2015-07-13 04:38:11,0.03,1.08,0.00,36.13,39.46,41.64,4.50,25.65,1008.40,1981.98,2937.55,2918.00,3158.91,349.97,330.21,34.86,0000 0000 0000 0000 000000
2015-07-13 04:43:12,0.02,1.08,0.00,36.15,39.49,41.65,4.41,25.56,1008.40,1981.92,2937.01,2917.86,3158.29,349.88,330.35,34.89,0000 0000 0000 0000 000000
2015-07-13 04:48:13,-0.01,1.08,0.00,36.17,39.51,41.67,4.46,25.57,1008.39,1981.65,2936.76,2917.22,3158.00,349.23,329.61,34.92,0000 0000 0000 0000 000000
2015-07-13 04:53:15,-0.02,1.08,0.00,36.19,39.54,41.70,4.52,25.47,1008.45,1981.23,2936.05,2916.96,3157.50,349.80,330.11,34.94,0000 0000 0000 0000 000000
2015-07-13 04:58:16,0.01,1.01,0.00,36.21,39.57,41.73,4.09,22.50,1008.36,1981.12,2967.87,2937.28,3180.56,311.09,291.48,0.00,0000 0000 0000 0000 000002
2015-07-13 05:03:17,0.01,0.00,0.00,36.23,39.59,41.75,4.47,27.40,1008.34,1982.01,3411.32,3224.11,3509.97,349.68,329.84,0.01,0000 0000 0000 0000 000000
2015-07-13 05:08:19,0.01,0.00,0.00,36.26,39.62,41.78,4.58,27.39,1008.34,1982.00,3409.31,3223.04,3508.67,350.39,330.44,0.04,0000 0000 0000 0000 000000
2015-07-13 05:13:20,0.01,0.00,0.00,36.29,39.65,41.81,4.58,27.47,1008.37,1981.97,3408.47,3222.54,3507.57,350.27,330.33,0.06,0000 0000 0000 0000 000000
2015-07-13 05:18:21,0.02,0.00,0.00,36.32,39.68,41.83,4.49,27.30,1008.38,1981.92,3407.92,3222.05,3506.97,349.91,330.12,0.09,0000 0000 0000 0000 000000
2015-07-13 05:23:22,0.00,0.00,0.00,36.34,39.70,41.87,4.50,27.39,1008.35,1981.47,3407.12,3221.89,3506.16,349.98,329.95,0.12,0000 0000 0000 0000 000000
2015-07-13 05:28:24,0.00,0.00,0.00,36.37,39.73,41.89,4.61,27.41,1008.33,1981.21,3406.69,3221.33,3505.89,350.03,330.03,0.15,0000 0000 0000 0000 000000
2015-07-13 05:33:25,0.02,0.00,0.00,36.40,39.75,41.91,4.51,27.29,1008.32,1981.05,3405.99,3221.00,3505.15,349.89,329.81,0.18,0000 0000 0000 0000 000000
2015-07-13 05:38:26,0.06,0.00,0.00,36.43,39.78,41.94,4.56,27.42,1008.32,1981.00,3405.25,3220.62,3504.62,350.58,330.40,0.21,0000 0000 0000 0000 000000
2015-07-13 05:43:28,0.04,0.00,0.00,36.45,39.81,41.96,4.54,27.42,1008.32,1981.00,3404.73,3220.02,3504.01,350.12,329.93,0.24,0000 0000 0000 0000 000000
2015-07-13 05:48:29,0.01,0.00,0.00,36.48,39.84,42.00,4.55,27.30,1008.32,1980.97,3404.06,3219.98,3503.72,350.11,329.97,0.27,0000 0000 0000 0000 000000
2015-07-13 05:53:30,0.11,0.01,0.00,36.52,39.86,42.02,4.53,27.34,1008.32,1980.92,3403.43,3218.99,3502.63,350.07,329.76,0.30,0000 0000 0000 0000 000000
2015-07-13 05:58:32,0.05,0.01,0.00,36.55,39.89,42.04,4.51,27.17,1008.32,1980.54,3401.93,3217.25,3500.74,350.01,329.87,0.33,0000 0000 0000 0000 000000
2015-07-13 06:03:33,0.00,0.01,0.00,36.57,39.92,42.08,4.54,27.29,1008.32,1980.15,3401.13,3216.97,3500.03,350.00,329.76,0.36,0000 0000 0000 0000 000000
2015-07-13 06:08:34,0.01,0.01,0.00,36.60,39.94,42.10,4.62,27.30,1008.33,1980.05,3400.97,3216.63,3499.88,349.99,329.68,0.39,0000 0000 0000 0000 000000
2015-07-13 06:13:36,0.05,0.01,0.00,36.64,39.97,42.13,4.50,27.27,1008.32,1980.00,3400.28,3216.05,3499.12,349.99,329.54,0.42,0000 0000 0000 0000 000000
2015-07-13 06:18:37,0.01,0.01,0.00,36.67,40.00,42.16,4.49,27.32,1008.31,1980.00,3399.90,3215.95,3498.86,350.18,329.70,0.45,0000 0000 0000 0000 000000
2015-07-13 06:23:39,0.06,0.01,0.00,36.70,40.03,42.18,4.49,27.24,1008.31,1979.99,3399.12,3215.36,3498.14,350.15,329.70,0.47,0000 0000 0000 0000 000000
2015-07-13 06:28:40,0.02,0.01,0.00,36.73,40.06,42.22,4.50,27.37,1008.31,1979.96,3398.76,3215.02,3497.87,349.88,329.45,0.50,0000 0000 0000 0000 000000
2015-07-13 06:33:41,-0.02,0.01,0.00,36.76,40.09,42.24,4.50,27.36,1008.31,1979.68,3398.09,3214.79,3497.19,349.76,329.38,0.53,0000 0000 0000 0000 000000
2015-07-13 06:38:42,-0.01,0.01,0.00,36.80,40.11,42.26,4.59,27.29,1008.31,1979.20,3397.60,3214.14,3496.82,349.94,329.65,0.56,0000 0000 0000 0000 000000
2015-07-13 06:43:43,0.01,0.01,0.00,36.83,40.14,42.31,4.53,27.23,1008.31,1979.05,3397.01,3213.99,3496.25,350.26,329.83,0.59,0000 0000 0000 0000 000000
2015-07-13 06:48:45,0.05,0.01,0.00,36.87,40.17,42.33,4.63,27.25,1008.31,1979.00,3396.44,3213.52,3495.92,350.42,329.64,0.62,0000 0000 0000 0000 000000
2015-07-13 06:53:46,0.03,0.02,0.00,36.90,40.20,42.34,4.59,27.28,1008.29,1979.00,3395.92,3213.02,3495.19,350.56,329.81,0.65,0000 0000 0000 0000 000000
2015-07-13 06:58:47,0.03,0.02,0.00,36.94,40.23,42.37,4.49,27.20,1008.25,1979.00,3395.14,3212.92,3495.00,349.86,329.06,0.68,0000 0000 0000 0000 000000
2015-07-13 07:03:48,0.05,0.02,0.00,36.98,40.26,42.41,4.55,27.25,1008.26,1978.98,3394.66,3212.28,3494.59,350.54,329.82,0.71,0000 0000 0000 0000 000000
2015-07-13 07:08:50,0.01,0.02,0.00,37.01,40.29,42.44,4.58,27.27,1008.31,1978.89,3394.03,3212.00,3494.02,350.02,329.45,0.74,0000 0000 0000 0000 000000
2015-07-13 07:13:51,0.00,0.02,0.00,37.06,40.32,42.46,4.51,27.18,1008.32,1978.60,3393.59,3211.64,3493.52,350.21,329.41,0.77,0000 0000 0000 0000 000000
2015-07-13 07:18:52,-0.02,0.02,0.00,37.11,40.35,42.48,4.46,27.17,1008.32,1978.20,3393.03,3211.05,3493.01,349.40,328.70,0.80,0000 0000 0000 0000 000000
2015-07-13 07:23:54,0.02,0.02,0.00,37.15,40.38,42.51,4.60,27.30,1008.33,1978.03,3392.55,3210.94,3492.54,350.37,329.48,0.83,0000 0000 0000 0000 000000
2015-07-13 07:28:55,0.04,0.02,0.00,37.19,40.41,42.55,4.47,27.18,1008.33,1978.00,3391.99,3210.30,3492.01,350.13,329.11,0.86,0000 0000 0000 0000 000000
2015-07-13 07:33:56,0.04,0.02,0.00,37.23,40.44,42.57,4.62,27.20,1008.33,1978.00,3391.50,3210.02,3491.70,350.52,329.31,0.88,0000 0000 0000 0000 000000
2015-07-13 07:38:58,0.03,0.02,0.00,37.27,40.47,42.61,4.56,27.26,1008.34,1977.95,3390.93,3209.68,3491.03,350.09,329.05,0.91,0000 0000 0000 0000 000000
2015-07-13 07:43:59,0.03,0.02,0.00,37.30,40.51,42.66,4.52,27.18,1008.48,1977.71,3390.33,3209.03,3490.51,350.45,329.38,0.94,0000 0000 0000 0000 000000
2015-07-13 07:49:00,-0.06,0.02,0.00,37.32,40.54,42.68,4.51,27.21,1008.44,1977.37,3389.98,3208.92,3490.04,350.00,328.88,0.97,0000 0000 0000 0000 000000
2015-07-13 07:54:02,0.04,0.02,0.00,37.33,40.57,42.70,4.54,27.18,1008.48,1977.05,3389.25,3208.25,3489.46,350.25,329.26,1.00,0000 0000 0000 0000 000000
2015-07-13 07:59:03,0.01,0.02,0.00,37.36,40.60,42.75,4.52,27.22,1008.47,1977.00,3388.95,3208.00,3489.02,350.29,329.21,1.03,0000 0000 0000 0000 000000
2015-07-13 08:04:04,0.05,0.02,0.00,37.37,40.64,42.76,4.55,27.18,1008.63,1977.00,3388.14,3207.65,3488.70,349.88,328.76,1.06,0000 0000 0000 0000 000000
2015-07-13 08:09:06,0.04,0.03,0.00,37.39,40.66,42.80,4.57,27.34,1008.59,1976.97,3387.56,3207.05,3488.03,350.00,328.85,1.09,0000 0000 0000 0000 000000
2015-07-13 08:14:07,-0.00,0.03,0.00,37.41,40.69,42.85,4.56,27.23,1008.76,1976.76,3386.97,3206.76,3487.54,350.35,329.22,1.12,0000 0000 0000 0000 000000
2015-07-13 08:19:08,0.01,0.03,0.00,37.43,40.72,42.87,4.53,27.18,1008.80,1976.41,3386.27,3206.12,3487.02,349.91,328.99,1.15,0000 0000 0000 0000 000000
2015-07-13 08:24:10,-0.02,0.03,0.00,37.44,40.75,42.92,4.51,27.18,1008.80,1976.15,3385.91,3205.96,3486.45,350.18,328.94,1.18,0000 0000 0000 0000 000000
2015-07-13 08:29:11,0.05,0.03,0.00,37.46,40.79,42.95,4.48,27.04,1008.81,1976.07,3385.16,3205.65,3486.03,349.73,328.80,1.21,0000 0000 0000 0000 000000
2015-07-13 08:34:13,0.03,0.03,0.00,37.48,40.81,42.96,4.48,27.07,1008.81,1976.08,3384.58,3205.08,3485.98,350.14,329.23,1.24,0000 0000 0000 0000 000000
2015-07-13 08:39:14,0.02,0.03,0.00,37.49,40.84,43.00,4.50,27.06,1008.82,1976.02,3384.02,3204.97,3485.60,349.90,328.82,1.27,0000 0000 0000 0000 000000
2015-07-13 08:44:15,0.02,0.03,0.00,37.50,40.87,43.02,4.50,27.02,1008.83,1976.00,3383.85,3204.72,3485.02,350.17,329.04,1.29,0000 0000 0000 0000 000000
2015-07-13 08:49:16,0.04,0.03,0.00,37.53,40.89,43.04,4.47,26.94,1008.88,1976.00,3383.16,3204.10,3484.93,350.12,329.01,1.32,0000 0000 0000 0000 000000
2015-07-13 08:54:17,0.02,0.03,0.00,37.54,40.92,43.08,4.53,26.95,1008.91,1976.00,3382.92,3203.99,3484.37,350.35,329.24,1.35,0000 0000 0000 0000 000000
2015-07-13 08:59:19,0.03,0.03,0.00,37.55,40.95,43.11,4.50,26.88,1009.02,1975.96,3382.25,3203.78,3484.01,350.00,328.81,1.38,0000 0000 0000 0000 000000
2015-07-13 09:04:20,0.02,0.03,0.00,37.57,40.98,43.13,4.55,26.96,1009.10,1975.88,3381.99,3203.20,3483.82,350.25,329.17,1.41,0000 0000 0000 0000 000000
2015-07-13 09:09:21,-0.05,0.03,0.00,37.60,40.99,43.15,4.49,26.93,1009.24,1975.44,3381.61,3203.00,3483.10,349.79,328.91,1.44,0000 0000 0000 0000 000000
2015-07-13 09:14:23,-0.00,0.03,0.00,37.60,41.02,43.17,4.52,26.95,1009.29,1975.19,3381.10,3202.92,3482.99,350.06,329.03,1.47,0000 0000 0000 0000 000000
2015-07-13 09:19:24,0.01,0.03,0.00,37.61,41.04,43.20,4.47,26.93,1009.29,1975.05,3380.96,3202.42,3482.76,349.73,328.64,1.50,0000 0000 0000 0000 000000
2015-07-13 09:24:25,0.04,0.03,0.00,37.63,41.06,43.24,4.52,26.92,1009.29,1975.00,3380.41,3202.03,3482.12,350.11,329.04,1.53,0000 0000 0000 0000 000000
2015-07-13 09:29:27,0.01,0.03,0.00,37.63,41.09,43.24,4.49,26.89,1009.29,1975.00,3380.04,3201.98,3482.00,350.18,329.17,1.56,0000 0000 0000 0000 000000
2015-07-13 09:34:28,0.03,0.03,0.00,37.64,41.10,43.27,4.49,26.95,1009.29,1975.00,3379.87,3201.74,3481.80,349.97,328.94,1.59,0000 0000 0000 0000 000000
2015-07-13 09:39:29,0.05,0.04,0.00,37.65,41.13,43.30,4.54,26.91,1009.30,1974.97,3379.12,3201.12,3481.11,350.17,329.16,1.62,0000 0000 0000 0000 000000
2015-07-13 09:44:30,-0.00,0.04,0.00,37.67,41.15,43.32,4.49,26.93,1009.30,1974.93,3378.99,3201.00,3480.99,350.42,329.23,1.65,0000 0000 0000 0000 000000
2015-07-13 09:49:31,-0.00,0.04,0.00,37.69,41.17,43.34,4.56,27.00,1009.29,1974.87,3378.79,3200.98,3480.90,350.16,328.85,1.68,0000 0000 0000 0000 000000
2015-07-13 09:54:33,0.01,0.04,0.00,37.70,41.19,43.37,4.54,26.93,1009.29,1974.69,3378.15,3200.81,3480.34,350.09,329.05,1.71,0000 0000 0000 0000 000000
2015-07-13 09:59:34,-0.03,0.04,0.00,37.73,41.21,43.39,4.41,26.91,1009.29,1974.39,3378.00,3200.34,3480.03,349.85,328.70,1.73,0000 0000 0000 0000 000000
2015-07-13 10:04:35,-0.00,0.04,0.00,37.74,41.23,43.38,4.55,26.94,1009.29,1974.10,3377.73,3200.01,3479.96,349.86,328.66,1.76,0000 0000 0000 0000 000000
2015-07-13 10:09:36,0.02,0.04,0.00,37.75,41.25,43.42,4.50,26.87,1009.29,1974.03,3377.08,3199.98,3479.57,349.99,328.83,1.79,0000 0000 0000 0000 000000
2015-07-13 10:14:38,0.02,0.04,0.00,37.75,41.28,43.44,4.50,27.10,1009.29,1974.01,3376.99,3199.69,3479.08,349.85,328.74,1.82,0000 0000 0000 0000 000000
2015-07-13 10:19:39,0.06,0.04,0.00,37.75,41.29,43.45,4.51,27.06,1009.30,1974.00,3376.49,3199.14,3478.80,350.18,329.05,1.85,0000 0000 0000 0000 000000
2015-07-13 10:24:40,0.08,0.04,0.00,37.75,41.31,43.48,4.56,26.88,1009.31,1974.00,3375.67,3198.53,3477.83,350.57,329.43,1.88,0000 0000 0000 0000 000000
2015-07-13 10:29:41,0.03,0.04,0.00,37.76,41.33,43.50,4.45,26.80,1009.31,1973.99,3375.03,3198.01,3477.09,349.46,328.26,1.91,0000 0000 0000 0000 000000
2015-07-13 10:34:42,0.00,0.04,0.00,37.77,41.34,43.51,4.56,26.85,1009.31,1973.99,3374.88,3197.94,3477.00,350.35,329.15,1.94,0000 0000 0000 0000 000000
2015-07-13 10:39:43,0.08,0.04,0.00,37.78,41.35,43.53,4.48,26.88,1009.31,1973.92,3373.88,3197.05,3476.12,350.33,328.99,1.97,0000 0000 0000 0000 000000
2015-07-13 10:44:44,0.07,0.05,0.00,37.78,41.38,43.55,4.53,26.83,1009.44,1973.89,3373.08,3196.10,3475.07,350.26,329.04,2.00,0000 0000 0000 0000 000000
2015-07-13 10:49:46,0.00,0.05,0.00,37.78,41.39,43.56,4.54,26.82,1009.64,1973.71,3372.87,3195.97,3474.79,350.15,328.94,2.03,0000 0000 0000 0000 000000
2015-07-13 10:54:47,0.01,0.05,0.00,37.78,41.40,43.57,4.51,26.81,1009.77,1973.51,3372.30,3195.77,3474.26,350.16,328.96,2.06,0000 0000 0000 0000 000000
2015-07-13 10:59:49,-0.02,0.05,0.00,37.79,41.42,43.57,4.50,27.13,1009.72,1973.19,3372.01,3195.15,3474.01,350.07,328.86,2.09,0000 0000 0000 0000 000000
2015-07-13 11:04:50,0.00,0.05,0.00,37.83,41.43,43.56,4.43,26.96,1009.77,1973.16,3371.98,3195.03,3473.99,349.71,328.61,2.12,0000 0000 0000 0000 000000
2015-07-13 11:09:51,-0.00,0.05,0.00,37.86,41.45,43.54,4.43,26.92,1009.74,1973.08,3371.66,3195.00,3473.80,349.31,328.17,2.14,0000 0000 0000 0000 000000
2015-07-13 11:14:52,0.01,0.05,0.00,37.89,41.46,43.55,4.52,26.86,1009.76,1973.04,3371.32,3195.00,3473.48,350.05,328.85,2.17,0000 0000 0000 0000 000000
2015-07-13 11:19:53,0.01,0.05,0.00,37.90,41.48,43.58,4.53,26.83,1009.75,1973.02,3371.05,3194.92,3473.11,349.91,328.61,2.20,0000 0000 0000 0000 000000
2015-07-13 11:24:54,0.02,0.05,0.00,37.94,41.50,43.60,4.50,26.73,1009.64,1973.00,3370.98,3194.40,3473.00,349.79,328.46,2.23,0000 0000 0000 0000 000000
2015-07-13 11:29:55,0.02,0.05,0.00,37.95,41.51,43.62,4.56,26.75,1009.77,1973.00,3370.80,3194.14,3472.97,350.17,328.96,2.26,0000 0000 0000 0000 000000
2015-07-13 11:34:57,0.03,0.05,0.00,37.98,41.53,43.66,4.53,26.79,1009.78,1973.00,3370.19,3194.01,3472.49,350.29,329.06,2.29,0000 0000 0000 0000 000000
2015-07-13 11:39:58,0.03,0.05,0.00,37.98,41.55,43.69,4.52,26.78,1009.80,1972.94,3369.58,3193.74,3471.98,349.90,328.70,2.32,0000 0000 0000 0000 000000
2015-07-13 11:44:59,0.02,0.05,0.00,37.96,41.56,43.73,4.54,26.82,1009.79,1972.86,3369.19,3193.15,3471.76,350.13,328.81,2.35,0000 0000 0000 0000 000000
2015-07-13 11:50:00,-0.02,0.05,0.00,37.95,41.58,43.75,4.57,26.90,1009.79,1972.61,3369.01,3193.01,3471.21,350.20,328.93,2.38,0000 0000 0000 0000 000000
2015-07-13 11:55:01,-0.03,0.05,0.00,37.95,41.59,43.77,4.50,26.82,1009.80,1972.41,3369.00,3193.00,3471.04,349.47,328.56,2.41,0000 0000 0000 0000 000000
2015-07-13 12:00:02,-0.01,0.05,0.00,37.95,41.60,43.79,4.51,26.66,1010.02,1972.35,3368.87,3192.99,3471.01,350.22,329.21,2.44,0000 0000 0000 0000 000000
2015-07-13 12:05:04,0.06,0.05,0.00,37.94,41.62,43.79,4.50,26.79,1010.26,1972.36,3368.13,3192.83,3470.98,349.74,328.67,2.47,0000 0000 0000 0000 000000
2015-07-13 12:10:05,0.05,0.05,0.00,37.93,41.63,43.79,4.49,26.77,1010.26,1972.42,3367.71,3192.22,3470.49,350.03,328.96,2.50,0000 0000 0000 0000 000000
2015-07-13 12:15:06,-0.00,0.05,0.00,37.92,41.63,43.81,4.48,26.73,1010.26,1972.32,3367.31,3192.07,3470.09,349.87,328.92,2.52,0000 0000 0000 0000 000000
2015-07-13 12:20:07,0.01,0.05,0.00,37.90,41.65,43.81,4.48,26.73,1010.25,1972.28,3367.02,3192.00,3470.00,350.09,329.03,2.55,0000 0000 0000 0000 000000
2015-07-13 12:25:09,-0.02,0.05,0.00,37.90,41.65,43.83,4.52,26.78,1010.27,1972.18,3366.99,3192.00,3470.00,350.13,329.01,2.58,0000 0000 0000 0000 000000
2015-07-13 12:30:10,0.01,0.05,0.00,37.88,41.65,43.83,4.47,26.83,1010.27,1972.14,3366.96,3191.99,3469.98,349.58,328.54,2.61,0000 0000 0000 0000 000000
2015-07-13 12:35:12,-0.01,0.05,0.00,37.88,41.66,43.83,4.49,26.82,1010.29,1972.04,3366.87,3191.98,3469.83,349.89,328.86,2.64,0000 0000 0000 0000 000000
2015-07-13 12:40:12,0.05,0.05,0.00,37.87,41.67,43.83,4.54,26.90,1010.30,1972.03,3366.29,3191.70,3469.37,350.24,328.99,2.67,0000 0000 0000 0000 000000
2015-07-13 12:45:14,0.00,0.05,0.00,37.85,41.68,43.84,4.46,26.89,1010.30,1972.02,3366.02,3191.61,3469.11,350.17,329.19,2.70,0000 0000 0000 0000 000000
2015-07-13 12:50:15,0.01,0.05,0.00,37.84,41.68,43.84,4.51,26.78,1010.35,1972.01,3366.01,3191.32,3469.02,350.36,329.39,2.73,0000 0000 0000 0000 000000
2015-07-13 12:55:16,0.00,0.05,0.00,37.83,41.68,43.84,4.53,26.89,1010.52,1972.00,3366.00,3191.20,3469.00,350.12,329.03,2.76,0000 0000 0000 0000 000000
2015-07-13 13:00:18,0.02,0.06,0.00,37.81,41.68,43.84,4.55,26.89,1010.68,1972.00,3365.89,3191.03,3468.82,349.69,328.90,2.79,0000 0000 0000 0000 000000